Previsão horária em Centralnyy

Hoje, 29 Julho, Quinta-feira

Tempo Temperatura Precipitação Vento Pressão Humidade
00:00 +25°C° 0 mm 2 m/s 751 mmHg 37%
01:00 +24°C° 0 mm 2 m/s 751 mmHg 40%
02:00 +24°C° 0 mm 2 m/s 751 mmHg 43%
03:00 +23°C° 0 mm 2 m/s 751 mmHg 47%
04:00 +24°C° 0 mm 2 m/s 751 mmHg 51%
05:00 +24°C° 0 mm 2 m/s 751 mmHg 54%
06:00 +24°C° 0 mm 2 m/s 751 mmHg 57%
07:00 +27°C° 0 mm 2 m/s 751 mmHg 51%
08:00 +29°C° 0 mm 2 m/s 751 mmHg 44%
09:00 +31°C° 0 mm 2 m/s 751 mmHg 40%
10:00 +32°C° 0 mm 2 m/s 751 mmHg 34%
11:00 +34°C° 0 mm 2 m/s 751 mmHg 28%
12:00 +35°C° 0 mm 3 m/s 750 mmHg 23%
13:00 +36°C° 0 mm 3 m/s 750 mmHg 22%
14:00 +36°C° 0 mm 3 m/s 750 mmHg 21%
15:00 +36°C° 0 mm 3 m/s 750 mmHg 21%
16:00 +36°C° 0 mm 3 m/s 749 mmHg 22%
17:00 +36°C° 0 mm 3 m/s 749 mmHg 22%
18:00 +35°C° 0 mm 3 m/s 749 mmHg 23%
19:00 +32°C° 0 mm 2 m/s 749 mmHg 27%
20:00 +30°C° 0 mm 2 m/s 749 mmHg 30%
21:00 +28°C° 0 mm 2 m/s 749 mmHg 33%
22:00 +27°C° 0 mm 1 m/s 749 mmHg 35%
23:00 +26°C° 0 mm 1 m/s 749 mmHg 36%

Amanhã, 30 Julho, Sexta-feira

Tempo Temperatura Precipitação Vento Pressão Humidade
00:00 +26°C° 0 mm 1 m/s 749 mmHg 38%
01:00 +25°C° 0 mm 1 m/s 749 mmHg 38%
02:00 +25°C° 0 mm 2 m/s 749 mmHg 39%
03:00 +24°C° 0 mm 2 m/s 749 mmHg 40%
04:00 +24°C° 0 mm 2 m/s 749 mmHg 42%
05:00 +24°C° 0 mm 2 m/s 749 mmHg 44%
06:00 +24°C° 0 mm 2 m/s 749 mmHg 46%
07:00 +26°C° 0 mm 2 m/s 749 mmHg 41%
08:00 +29°C° 0 mm 3 m/s 749 mmHg 36%
09:00 +31°C° 0 mm 3 m/s 749 mmHg 31%
10:00 +33°C° 0 mm 4 m/s 749 mmHg 28%
11:00 +35°C° 0 mm 4 m/s 749 mmHg 25%
12:00 +36°C° 0 mm 4 m/s 749 mmHg 22%
13:00 +36°C° 0 mm 4 m/s 748 mmHg 21%
14:00 +37°C° 0 mm 3 m/s 748 mmHg 21%
15:00 +37°C° 0 mm 3 m/s 748 mmHg 20%
16:00 +37°C° 0 mm 3 m/s 748 mmHg 21%
17:00 +36°C° 0 mm 3 m/s 747 mmHg 22%
18:00 +36°C° 0 mm 3 m/s 747 mmHg 23%
19:00 +32°C° 0 mm 2 m/s 747 mmHg 29%
20:00 +30°C° 0 mm 2 m/s 747 mmHg 36%
21:00 +27°C° 0 mm 1 m/s 747 mmHg 42%
22:00 +27°C° 0 mm 1 m/s 747 mmHg 43%
23:00 +27°C° 0 mm 2 m/s 747 mmHg 44%

Depois de amanhã, 31 Julho, Sábado

Tempo Temperatura Precipitação Vento Pressão Humidade
00:00 +26°C° 0 mm 2 m/s 747 mmHg 45%
01:00 +26°C° 0 mm 2 m/s 747 mmHg 43%
02:00 +25°C° 0 mm 2 m/s 747 mmHg 42%
03:00 +25°C° 0 mm 2 m/s 747 mmHg 40%
04:00 +25°C° 0 mm 2 m/s 747 mmHg 41%
05:00 +25°C° 0 mm 2 m/s 747 mmHg 42%
06:00 +25°C° 0 mm 2 m/s 748 mmHg 43%
07:00 +27°C° 0 mm 2 m/s 748 mmHg 38%
08:00 +29°C° 0 mm 2 m/s 748 mmHg 33%
09:00 +32°C° 0 mm 2 m/s 748 mmHg 27%
10:00 +34°C° 0 mm 2 m/s 748 mmHg 24%
11:00 +36°C° 0 mm 2 m/s 748 mmHg 22%
12:00 +37°C° 0 mm 2 m/s 748 mmHg 19%
13:00 +37°C° 0 mm 2 m/s 748 mmHg 18%
14:00 +38°C° 0 mm 2 m/s 747 mmHg 18%
15:00 +38°C° 0 mm 2 m/s 747 mmHg 17%
16:00 +37°C° 0 mm 2 m/s 747 mmHg 18%
17:00 +37°C° 0 mm 2 m/s 747 mmHg 20%
18:00 +36°C° 0 mm 2 m/s 747 mmHg 21%
19:00 +34°C° 0 mm 2 m/s 747 mmHg 23%
20:00 +31°C° 0 mm 2 m/s 747 mmHg 26%
21:00 +29°C° 0 mm 2 m/s 748 mmHg 29%
22:00 +28°C° 0 mm 2 m/s 748 mmHg 31%
23:00 +28°C° 0 mm 2 m/s 748 mmHg 33%

1 Agosto, Domingo

Tempo Temperatura Precipitação Vento Pressão Humidade
00:00 +27°C° 0 mm 2 m/s 748 mmHg 35%
01:00 +26°C° 0 mm 2 m/s 748 mmHg 38%
02:00 +26°C° 0 mm 2 m/s 748 mmHg 40%
03:00 +25°C° 0 mm 2 m/s 748 mmHg 43%
04:00 +26°C° 0 mm 2 m/s 748 mmHg 41%
05:00 +26°C° 0 mm 2 m/s 748 mmHg 39%
06:00 +26°C° 0 mm 2 m/s 749 mmHg 37%
07:00 +29°C° 0 mm 2 m/s 749 mmHg 33%
08:00 +31°C° 0 mm 2 m/s 749 mmHg 28%
09:00 +35°C° 0 mm 3 m/s 749 mmHg 23%
10:00 +36°C° 0 mm 3 m/s 749 mmHg 21%
11:00 +38°C° 0 mm 3 m/s 749 mmHg 19%
12:00 +40°C° 0 mm 4 m/s 748 mmHg 17%
13:00 +40°C° 0 mm 4 m/s 748 mmHg 16%
14:00 +40°C° 0 mm 3 m/s 748 mmHg 16%
15:00 +40°C° 0 mm 3 m/s 748 mmHg 15%
16:00 +39°C° 0 mm 3 m/s 747 mmHg 17%
17:00 +39°C° 0 mm 3 m/s 747 mmHg 18%
18:00 +38°C° 0 mm 3 m/s 747 mmHg 19%
19:00 +36°C° 0 mm 2 m/s 747 mmHg 22%
20:00 +34°C° 0 mm 2 m/s 748 mmHg 24%
21:00 +31°C° 0 mm 1 m/s 748 mmHg 27%
22:00 +30°C° 0 mm 2 m/s 748 mmHg 27%
23:00 +30°C° 0 mm 2 m/s 748 mmHg 27%

2 Agosto, Segunda-feira

Tempo Temperatura Precipitação Vento Pressão Humidade
00:00 +29°C° 0 mm 2 m/s 748 mmHg 27%
01:00 +28°C° 0 mm 2 m/s 747 mmHg 27%
02:00 +28°C° 0 mm 2 m/s 747 mmHg 27%
03:00 +27°C° 0 mm 2 m/s 747 mmHg 26%
04:00 +27°C° 0 mm 2 m/s 748 mmHg 29%
05:00 +27°C° 0 mm 2 m/s 748 mmHg 32%
06:00 +27°C° 0 mm 2 m/s 748 mmHg 36%
07:00 +30°C° 0 mm 3 m/s 748 mmHg 33%
08:00 +33°C° 0 mm 3 m/s 748 mmHg 29%
09:00 +36°C° 0 mm 4 m/s 748 mmHg 26%
10:00 +37°C° 0 mm 4 m/s 748 mmHg 25%
11:00 +38°C° 0 mm 4 m/s 748 mmHg 23%
12:00 +40°C° 0 mm 3 m/s 748 mmHg 21%
13:00 +40°C° 0 mm 3 m/s 747 mmHg 21%
14:00 +40°C° 0 mm 3 m/s 747 mmHg 20%
15:00 +42°C° 0 mm 3 m/s 747 mmHg 19%
16:00 +40°C° 0 mm 3 m/s 747 mmHg 19%
17:00 +40°C° 0 mm 3 m/s 747 mmHg 19%
18:00 +39°C° 0 mm 3 m/s 746 mmHg 19%
19:00 +37°C° 0 mm 2 m/s 746 mmHg 22%
20:00 +35°C° 0 mm 2 m/s 746 mmHg 24%
21:00 +32°C° 0 mm 2 m/s 746 mmHg 26%
22:00 +31°C° 0 mm 2 m/s 746 mmHg 28%
23:00 +30°C° 0 mm 2 m/s 746 mmHg 29%

3 Agosto, Terça-feira

Tempo Temperatura Precipitação Vento Pressão Humidade
00:00 +30°C° 0 mm 3 m/s 746 mmHg 30%
01:00 +29°C° 0 mm 2 m/s 746 mmHg 30%
02:00 +29°C° 0 mm 2 m/s 746 mmHg 30%
03:00 +28°C° 0 mm 2 m/s 746 mmHg 30%
04:00 +28°C° 0 mm 2 m/s 747 mmHg 31%
05:00 +28°C° 0 mm 2 m/s 747 mmHg 32%
06:00 +28°C° 0 mm 2 m/s 747 mmHg 33%
07:00 +30°C° 0 mm 3 m/s 747 mmHg 30%
08:00 +34°C° 0 mm 4 m/s 747 mmHg 28%
09:00 +36°C° 0 mm 4 m/s 747 mmHg 26%
10:00 +39°C° 0 mm 5 m/s 747 mmHg 24%
11:00 +40°C° 0 mm 5 m/s 747 mmHg 22%
12:00 +41°C° 0 mm 5 m/s 747 mmHg 21%
13:00 +42°C° 0 mm 4 m/s 747 mmHg 19%
14:00 +42°C° 0 mm 4 m/s 746 mmHg 18%
15:00 +43°C° 0 mm 3 m/s 746 mmHg 17%
16:00 +42°C° 0 mm 3 m/s 746 mmHg 17%
17:00 +40°C° 0 mm 3 m/s 746 mmHg 17%
18:00 +40°C° 0 mm 3 m/s 746 mmHg 17%
19:00 +38°C° 0 mm 4 m/s 746 mmHg 21%
20:00 +35°C° 0 mm 4 m/s 746 mmHg 26%
21:00 +33°C° 0 mm 4 m/s 747 mmHg 31%
22:00 +32°C° 0 mm 4 m/s 747 mmHg 39%
23:00 +29°C° 0 mm 4 m/s 747 mmHg 48%
Mostrar mais

Necessitamos do seu Consentimento

A Meteoprog e os seus Fornecedores de Serviços podem armazenar e aceder a dados pessoais como cookies, identificadores do dispositivo ou outras tecnologias semelhantes existentes no seu dispositivo e processar estes dados para personalizar conteúdos e anúncios, assim como funcionalidades nas redes sociais e análise de tráfego.

  • Armazenar e/ou aceder a informações no seu dispositivo

    Os cookies, identificadores do dispositivo ou outras informações podem ser armazenados ou acedidos no seu dispositivo, para os fins acima indicados.

  • Anúncios e conteúdos personalizados, medição de anúncios e conteúdos, dados sobre o público-alvo e desenvolvimento de produtos

    Os anúncios e os conteúdos podem ser personalizados com base num perfil. Podem ser adicionados dados adicionais para uma maior personalização dos anúncios e dos conteúdos. A eficácia dos anúncios e dos conteúdos pode ser medida. Podem ser obtidas informações sobre o público que visualizou os anúncios e os conteúdos. Estes dados podem ser usados para desenvolver ou melhorar sistemas, softwares ou a experiência do utilizador.

Ao clicar em "Eu concordo”, permitirá o uso de cookies, identificadores do dispositivo e web beacons mencionados ou outras tecnologias semelhantes. As configurações do navegador do seu dispositivo podem ser alteradas.

Para certos fins, podem ser invocados interesses legítimos ao invés de consentimento. Pode ler mais informação sobre este assunto na nossa Política de Privacidade e Cookies.